This is the latest recevied weather packets stored in our database for station/object N8GD. If no packets are shown the sender has not sent any weather packets the latest 10 day(s).
| Time | Temp. | Humidity | Pressure | Rain* | Wind** | Luminosity | Snow |
|---|---|---|---|---|---|---|---|
| 1777246663 | 16.11° C | 64% | 1019.6 hPa | 0 mm | - | - | - |
| 1777245765 | 16.67° C | 62% | 1019.6 hPa | 0 mm | - | - | - |
| 1777244864 | 17.22° C | 61% | 1019.5 hPa | 0 mm | - | - | - |
| 1777243965 | 17.22° C | 61% | 1019.6 hPa | 0 mm | - | - | - |
| 1777243064 | 17.78° C | 61% | 1019.5 hPa | 0 mm | - | - | - |
| 1777242165 | 17.78° C | 62% | 1019.5 hPa | 0 mm | - | - | - |
| 1777241264 | 17.78° C | 62% | 1019.6 hPa | 0 mm | - | - | - |
| 1777240365 | 18.33° C | 62% | 1019.5 hPa | 0 mm | - | - | - |
| 1777239463 | 18.33° C | 61% | 1019.3 hPa | 0 mm | - | - | - |
| 1777238564 | 18.33° C | 61% | 1019.2 hPa | 0 mm | - | - | - |
| 1777237664 | 17.78° C | 62% | 1019.1 hPa | 0 mm | - | - | - |
| 1777236765 | 18.33° C | 62% | 1019.1 hPa | 0 mm | - | - | - |
| 1777235863 | 17.78° C | 64% | 1019.1 hPa | 0 mm | - | - | - |
| 1777234965 | 17.22° C | 67% | 1019.1 hPa | 0 mm | - | - | - |
| 1777234906 | 17.22° C | 67% | 1019.1 hPa | 0 mm | - | - | - |
| 1777234065 | 17.22° C | 66% | 1019.1 hPa | 0 mm | - | - | - |
| 1777233164 | 16.67° C | 66% | 1019.1 hPa | 0 mm | - | - | - |
| 1777232265 | 16.67° C | 65% | 1019.5 hPa | 0 mm | - | - | - |
| 1777231364 | 16.67° C | 67% | 1019.6 hPa | 0 mm | - | - | - |
| 1777230465 | 15.56° C | 71% | 1019.7 hPa | 0 mm | - | - | - |
| 1777230412 | 15.56° C | 72% | 1019.7 hPa | 0 mm | - | - | - |
| 1777229564 | 15° C | 69% | 1019.7 hPa | 0 mm | - | - | - |
| 1777228665 | 15° C | 72% | 1019.7 hPa | 0 mm | - | - | - |
| 1777227764 | 15° C | 73% | 1019.8 hPa | 0 mm | - | - | - |
| 1777226865 | 15° C | 74% | 1019.9 hPa | 0 mm | - | - | - |
* Rain latest hour (hover to see other rain measurements)
** Current wind speed in m/s (hover to see current wind gust speed)